TimeCST,TemperatureF,Dew PointF,Humidity,Sea Level PressureIn,VisibilityMPH,Wind Direction,Wind SpeedMPH,Gust SpeedMPH,PrecipitationIn,Events,Conditions,WindDirDegrees,DateUTC
12:53 AM,37.0,30.9,79,29.81,10.0,WNW,20.7,26.5,N/A,,Overcast,290,2013-01-12 06:53:00
1:14 AM,35.6,30.2,81,29.82,10.0,WNW,21.9,27.6,N/A,,Overcast,290,2013-01-12 07:14:00
1:27 AM,35.6,28.4,75,29.84,10.0,WNW,21.9,31.1,N/A,,Mostly Cloudy,290,2013-01-12 07:27:00
1:44 AM,33.8,26.6,75,29.86,10.0,WNW,17.3,28.8,N/A,,Scattered Clouds,290,2013-01-12 07:44:00
1:53 AM,33.1,27.0,78,29.89,10.0,WNW,15.0,20.7,N/A,,Scattered Clouds,290,2013-01-12 07:53:00
2:53 AM,30.9,21.9,69,29.94,10.0,NW,16.1,-,N/A,,Clear,310,2013-01-12 08:53:00
3:53 AM,30.0,21.9,72,29.97,10.0,NW,9.2,-,N/A,,Scattered Clouds,310,2013-01-12 09:53:00
4:03 AM,30.2,21.2,69,29.96,10.0,NW,8.1,-,N/A,,Mostly Cloudy,320,2013-01-12 10:03:00
4:34 AM,30.2,21.2,69,29.97,10.0,NW,13.8,-,N/A,,Scattered Clouds,320,2013-01-12 10:34:00
4:53 AM,28.0,19.9,72,29.99,10.0,WNW,10.4,-,N/A,,Partly Cloudy,300,2013-01-12 10:53:00
5:53 AM,27.0,16.0,63,30.01,10.0,NW,13.8,-,N/A,,Clear,320,2013-01-12 11:53:00
6:53 AM,26.1,17.1,69,30.03,10.0,NW,11.5,-,N/A,,Clear,310,2013-01-12 12:53:00
7:53 AM,25.0,12.9,60,30.08,10.0,NW,11.5,-,N/A,,Clear,310,2013-01-12 13:53:00
8:53 AM,26.1,12.9,58,30.09,10.0,NNW,11.5,-,N/A,,Clear,330,2013-01-12 14:53:00
9:53 AM,27.0,14.0,58,30.10,10.0,NW,15.0,-,N/A,,Scattered Clouds,310,2013-01-12 15:53:00
10:53 AM,28.0,15.1,58,30.12,10.0,NW,11.5,-,N/A,,Scattered Clouds,320,2013-01-12 16:53:00
11:53 AM,27.0,12.9,56,30.08,10.0,WNW,11.5,-,N/A,,Mostly Cloudy,300,2013-01-12 17:53:00
12:53 PM,28.0,12.0,51,30.08,10.0,WNW,13.8,-,N/A,,Mostly Cloudy,300,2013-01-12 18:53:00
1:53 PM,26.1,10.9,53,30.07,10.0,North,15.0,-,N/A,,Overcast,350,2013-01-12 19:53:00
2:53 PM,25.0,10.9,55,30.08,10.0,NNW,12.7,-,N/A,,Overcast,340,2013-01-12 20:53:00
3:53 PM,25.0,10.0,53,30.09,10.0,NNW,11.5,-,N/A,,Mostly Cloudy,340,2013-01-12 21:53:00
4:53 PM,24.1,10.0,55,30.09,10.0,North,12.7,-,N/A,,Overcast,350,2013-01-12 22:53:00
5:53 PM,25.0,10.9,55,30.16,10.0,NNW,4.6,-,N/A,,Overcast,340,2013-01-12 23:53:00
6:53 PM,25.0,10.9,55,30.08,10.0,NNW,15.0,-,N/A,,Overcast,340,2013-01-13 00:53:00
7:53 PM,24.1,10.9,57,30.12,10.0,NNW,12.7,-,N/A,,Overcast,340,2013-01-13 01:53:00
8:53 PM,23.0,10.9,60,30.11,10.0,NNW,17.3,-,N/A,,Overcast,340,2013-01-13 02:53:00
9:53 PM,21.9,10.0,60,30.11,10.0,NNW,18.4,-,N/A,,Overcast,330,2013-01-13 03:53:00
10:53 PM,19.9,10.0,65,30.13,10.0,NNW,16.1,-,N/A,,Scattered Clouds,330,2013-01-13 04:53:00
11:53 PM,19.0,9.0,65,30.15,10.0,NNW,15.0,-,N/A,,Overcast,330,2013-01-13 05:53:00